Home > Weather > St. Louis > Past weeks

Flag for USA Past Weather in St. Louis, Missouri, USA — Yesterday and Last 2 Weeks

Now
69 °F

Passing clouds.


Feels Like: 69 °F
Forecast: 65 / 83 °F
Wind: 5 mph from East

Location: Lambert-St. Louis International Airport

Current Time: Jun 30, 2016 at 2:03:49 AM

Latest Report: Jun 30, 2016 at 12:51 AM


Visibility: 10 mi

Pressure: 30.04 "Hg

Humidity: 57%

Dew Point: 53 °F

Location of St. LouisLocation

Past Weather in St. Louis — Graph

°F

St. Louis Temperature Yesterday

Maximum temperature yesterday: 82 °F (at 3:51 PM)
Minimum temperature yesterday: 65 °F (at 5:51 AM)
Average temperature yesterday: 74 °F

High & Low Weather Summary for the Past Weeks

 TemperatureHumidityPressure
High99 °F (Jun 15, 3:51 PM)89% (Jun 25, 4:57 PM)30.24 "Hg (Jun 25, 4:57 PM)
Low65 °F (Jun 29, 5:51 AM)27% (Jun 18, 1:51 PM)29.73 "Hg (Jun 15, 3:51 AM)
Average84 °F55%29.99 "Hg
* Reported Jun 14 11:51 PM — Jun 29 11:51 PM, St. Louis, Weather by CustomWeather, © 2016

Note: Actual official high and low records may vary slightly from our data, if they occured in-between our weather recording intervals... More about our weather records

Advertising

St. Louis Weather History for the Previous 24 Hours

Scroll right to see more
 ConditionsComfort  
Time TempWeatherWind HumidityBarometerVisibility
11:51 PM
Wed, Jun 29
70 °FPassing clouds.6 mph55%30.05 "Hg10 mi
10:51 PM72 °FPassing clouds.6 mph52%30.04 "Hg10 mi
9:51 PM75 °FPassing clouds.6 mph45%30.03 "Hg10 mi
8:51 PM76 °FBroken clouds.6 mph45%30.01 "Hg10 mi
7:51 PM78 °FBroken clouds.7 mph42%30.02 "Hg10 mi
6:51 PM79 °FBroken clouds.5 mph39%30.03 "Hg10 mi
5:51 PM80 °FBroken clouds.8 mph35%30.03 "Hg10 mi
4:51 PM82 °FScattered clouds.9 mph34%30.05 "Hg10 mi
3:51 PM82 °FScattered clouds.10 mph37%30.06 "Hg10 mi
2:51 PM81 °FPartly sunny.6 mph37%30.08 "Hg10 mi
1:51 PM79 °FPartly sunny.No wind38%30.09 "Hg10 mi
12:51 PM79 °FPartly sunny.3 mph39%30.10 "Hg10 mi
11:51 AM75 °FPartly sunny.3 mph40%30.11 "Hg10 mi
10:51 AM74 °FPartly sunny.7 mph40%30.12 "Hg10 mi
9:51 AM74 °FScattered clouds.7 mph38%30.13 "Hg10 mi
8:51 AM72 °FScattered clouds.10 mph35%30.12 "Hg10 mi
7:51 AM69 °FPassing clouds.9 mph42%30.12 "Hg10 mi
6:51 AM66 °FPassing clouds.7 mph56%30.11 "Hg10 mi
5:51 AM65 °FPassing clouds.7 mph70%30.11 "Hg10 mi
4:51 AM66 °FPassing clouds.9 mph73%30.10 "Hg10 mi
3:51 AM67 °FPassing clouds.8 mph73%30.08 "Hg10 mi
2:51 AM69 °FClear.6 mph68%30.09 "Hg10 mi
Weather by CustomWeather, © 2016

See weather overviewHow to use our weather pages